Location: Camerons Lookout
(40.9833°S, 175.9333°E)
Time: 17:17:06
(UTC+00:00)

Helios 1B rocket - Pass Details

Date: 14 January 2026
Orbit: 471 x 478 km, 98.2° (Epoch: 16 February)

Event Time Altitude Azimuth Distance (km) Brightness Sun altitude
Rises 11:33:10 0° 175° (S) 2,563 6.9 -26.6°
Reaches altitude 10° 11:35:19 10° 182° (S) 1,676 5.7 -26.7°
Enters shadow 11:37:48 33° 215° (SW) 830 3.7 -26.8°
